sat.trackr.live / text

‹ back to catalog

ODIN

NORAD 26702 · 2001-007A

PAYLOAD ACTIVE UNKNOWN

§ Identity

Operator
Country
SWED
Launch date
2001-02-20
Launch site
SVOBO
Launch vehicle
Mass (kg)
RCS (m²)
1.16

Purposes: science

External: N2YO · Heavens-Above · Gunter

§ Orbital elements

Epoch: 2026-08-03T13:19:32.775744Z

Period
87.57 min
Inclination
97.3527°
Eccentricity
0.0013244
Mean motion
16.44308982 rev/d
Perigee alt
145.7 km
Apogee alt
163.0 km
Semi-major
6,532.5 km
B*
5.1896e-4
RAAN
260.5021°
Arg perigee
271.8135°
Mean anomaly
88.1649°
Rev number
39,692

§ Raw data

ODIN1 26702U 01007A   26215.55524046  .18524984  25409-5  51896-3 0  99902 26702  97.3527 260.5021 0013244 271.8135  88.1649 16.44308982396929

JSON: /api/v1/satellites/26702 · /tle

For live sub-satellite position, see the globe view (requires WebGL).

§ Visibility from observer

Set your observer location to see the next 7 days of passes ≥ 10°. The values pass through the URL so the page stays shareable.

No JS? Fill the form by hand. The geolocation button needs JavaScript.

§ Radio — SatNOGS DB

ModeDescriptionDownlinkUplink
QPSK QPSK 2.208 GHz
BPSK S-band telemetry 2.265 GHz

2 transmitters · refreshed weekly from db.satnogs.org